TimeCST,TemperatureF,Dew PointF,Humidity,Sea Level PressureIn,VisibilityMPH,Wind Direction,Wind SpeedMPH,Gust SpeedMPH,PrecipitationIn,Events,Conditions,WindDirDegrees,DateUTC
12:53 AM,19.0,16.0,88,30.49,10.0,Calm,Calm,-,N/A,,Clear,0,2012-11-16 06:53:00
1:53 AM,17.1,14.0,88,30.48,10.0,SSW,3.5,-,N/A,,Clear,200,2012-11-16 07:53:00
2:53 AM,17.1,12.9,84,30.47,10.0,Calm,Calm,-,N/A,,Clear,0,2012-11-16 08:53:00
3:53 AM,15.1,12.0,88,30.46,10.0,Calm,Calm,-,N/A,,Clear,0,2012-11-16 09:53:00
4:53 AM,16.0,12.9,88,30.45,10.0,SW,3.5,-,N/A,,Clear,220,2012-11-16 10:53:00
5:53 AM,14.0,12.0,92,30.47,10.0,Calm,Calm,-,N/A,,Clear,0,2012-11-16 11:53:00
6:53 AM,15.1,10.9,84,30.47,10.0,Calm,Calm,-,N/A,,Clear,0,2012-11-16 12:53:00
7:53 AM,14.0,10.0,84,30.48,10.0,Calm,Calm,-,N/A,,Clear,0,2012-11-16 13:53:00
8:53 AM,24.1,21.9,91,30.46,8.0,Calm,Calm,-,N/A,,Clear,0,2012-11-16 14:53:00
9:53 AM,35.1,28.9,78,30.45,10.0,South,5.8,-,N/A,,Clear,170,2012-11-16 15:53:00
10:53 AM,45.0,32.0,60,30.41,10.0,South,16.1,-,N/A,,Clear,170,2012-11-16 16:53:00
11:53 AM,50.0,30.0,46,30.38,10.0,South,17.3,-,N/A,,Clear,190,2012-11-16 17:53:00
12:53 PM,53.1,30.0,41,30.34,10.0,South,18.4,-,N/A,,Clear,190,2012-11-16 18:53:00
1:53 PM,55.9,30.0,37,30.30,10.0,South,19.6,23.0,N/A,,Clear,180,2012-11-16 19:53:00
2:53 PM,55.9,28.9,36,30.27,10.0,South,19.6,27.6,N/A,,Clear,180,2012-11-16 20:53:00
3:53 PM,55.0,28.9,37,30.26,10.0,SSE,16.1,26.5,N/A,,Clear,160,2012-11-16 21:53:00
4:53 PM,53.1,30.0,41,30.25,10.0,SSE,13.8,-,N/A,,Clear,160,2012-11-16 22:53:00
5:53 PM,48.9,30.0,48,30.25,10.0,SSE,11.5,-,N/A,,Clear,160,2012-11-16 23:53:00
6:53 PM,45.0,30.9,58,30.26,10.0,SSE,5.8,-,N/A,,Clear,150,2012-11-17 00:53:00
7:53 PM,45.0,32.0,60,30.26,10.0,SSE,10.4,-,N/A,,Clear,160,2012-11-17 01:53:00
8:53 PM,43.0,32.0,65,30.24,10.0,South,9.2,-,N/A,,Clear,170,2012-11-17 02:53:00
9:53 PM,42.1,32.0,67,30.22,10.0,SSE,6.9,-,N/A,,Clear,160,2012-11-17 03:53:00
10:53 PM,41.0,32.0,70,30.21,10.0,SSE,8.1,-,N/A,,Clear,160,2012-11-17 04:53:00
11:53 PM,42.1,33.1,70,30.20,10.0,South,11.5,-,N/A,,Clear,180,2012-11-17 05:53:00